DECAYED

NOAA 16 DEB, 42352 (Decayed)

Orbit data source: Space-Track

NOAA 16 DEB, 42352 was space debris in SSO originally from a launch on Thu, 21 Sep 2000 UTC launched from the Air Force Western Test Range (AFWTR). Debris objects in space refer to the collection of defunct objects orbiting the Earth. Examples of debris include non-operational satellites, rocket bodies, and fragments generated from explosions, collisions, or faulty payload assembly.

Not visible in the next 10 days
Identifier
42352, 2000-055QU
Orbit
Decayed
Country
Flag of USUS
Related business
Manufacturer
Unknown
Mission
Decayed spacecraft
Bus & Motor
Unknown
Mass
Unknown
Launch date (UTC)
2000-09-21 (26 years ago)
Launch vehicle
Unknown
Launch site
Air Force Western Test Range (AFWTR)
Object type
Payload
Rocket body
Debris
Shape & HBR
Unknown shape, 0.1 m
Radar Cross Section
Medium (>0.1 m² and <1 m²)

Expand to show TLE details & history
Last TLE update: 7 months ago

TLE from 7 months ago
0 NOAA 16 DEB
1 42352U 00055QU  26016.02543853  .06210316  00000-0  22471-1 0  9997
2 42352  98.8999 196.8747 0015306 333.4933  26.5547 15.84516113509586
Epoch: 2026-01-16T00:36Z
TLE epoch observation values (Epoch: 2026-01-16T00:36:37.888Z)
Latitude
-0.00013°
Longitude
72.24621°
Altitude
311.65 km
Speed
7.726 km/s
True Right ascension
13h 07m 29s
True Declination
0° 00' 00"
Sunlit
Object was in daylight at epoch
Visualization orbit readout
Latitude
Unknown
Longitude
Unknown
Altitude
Unknown
Speed
Unknown
Apparent Right ascension
Unknown
Apparent Declination
Unknown
Sunlit
N/A
Visualization observer readout
Local Sidereal Time
10:41:46
Azimuth
Unknown
Elevation
Unknown
Doppler factor
Unknown
Orbital elements
Apogee altitude
324.884 km
Perigee altitude
304.396 km
Semi-major axis
6,692.777 km
Eccentricity
0.00153
Inclination
98.8999°
RAAN
196.8747°
Arg. of periapsis
333.4933°
True anomaly
26.63324°
Mean anomaly
26.5547°
Eccentric anomaly
26.59396°
Mean motion
3.964 °/min
Orbital period
90.82 mins
BSTAR
0.022471
Loading maneuver chart data...
Computing Atmospheric mass density...
Loading historical data...
Loading historical data...
Loading historical data...
Loading historical data...
Loading historical data...
Loading historical data...
Loading historical data...

Documentation

Showing up to 5 results
|